Voltar ao catálogo

AISTECHSAT-2

AtivoRádio AmadorSSO
NORAD 43768·PAYLOAD·🇪🇸 Spain

Lançado Dec 3, 2018 de Vandenberg Space Force Base

Loading…

Próximas Passagens (próximas 24 horas)

TLE

AtualizadoSource: Space-Track

Época: Sep 14, 2026, 20:45 UTC

1 43768U 18099L   26257.86459031  .00004741  00000-0  24867-3 0  9999
2 43768  97.4202 303.9426 0004464   9.4674 350.6643 15.16222487425869

Acompanhe AISTECHSAT-2 em tempo real com AllMySat

Download on the App Store